Weather History for K1A6 - February, 2014

Change the Weather History Date:

Tuesday, February 4, 2014

  Actual Average (KLOZ) Record (KLOZ)
Temperature  
Mean Temperature 42 °F 37 °F  
Max Temperature 52 °F 47 °F 73 °F (1962)
Min Temperature 33 °F 27 °F -5 °F (1970)
Degree Days  
Heating Degree Days 22 28  
Month to date heating degree days 112  
Since 1 July heating degree days 2675  
Cooling Degree Days 0 0  
Month to date cooling degree days 0  
Year to date cooling degree days 0  
Moisture  
Dew Point 38 °F    
Average Humidity 83    
Maximum Humidity 97    
Minimum Humidity 60    
Precipitation  
Precipitation 0.15 in 0.13 in 1.04 in (1956)
Month to date precipitation 0.51  
Year to date precipitation 4.05  
Sea Level Pressure  
Sea Level Pressure 30.08 in    
Wind  
Wind Speed 1 mph (SSW)    
Max Wind Speed 10 mph    
Max Gust Speed -    
Visibility 9 miles    
Events Rain    
T = Trace of Precipitation, MM = Missing Value Source: NWS Daily Summary

Daily Weather History Graph

Daily Weather History Graph

Search for Another Location

Airport or City:

Trip Planner

Search our weather history database for the weather conditions in past years. The results will help you decide how hot, cold, wet, or windy it might be!

Date:

Astronomy

Feb. 04, 2014 Rise Set
Actual Time 6:34 AM CST 5:04 PM CST
Civil Twilight 6:07 AM CST 5:31 PM CST
Nautical Twilight 5:36 AM CST 6:01 PM CST
Astronomical Twilight 5:06 AM CST 6:32 PM CST
Moon 9:21 AM CST (2/4) 10:46 PM CST (2/4)
Length of Visible Light 11h 23m
Length of Day
10h 29m
Waxing Crescent, 29% of the Moon is Illuminated
Feb 4
Waxing Crescent
Feb 6
First Quarter
Feb 14
Full
Feb 22
Last Quarter
Mar 1
New

Hourly Weather History & Observations

Time (CST) Temp. Windchill Dew Point Humidity Pressure Visibility Wind Dir Wind Speed Gust Speed Precip Events Conditions
12:15 AM 34.9 °F - 32.2 °F 90% 30.23 in 10.0 mi Calm Calm - N/A   Overcast
12:35 AM 34.9 °F - 32.2 °F 90% 30.23 in 10.0 mi Calm Calm - N/A   Overcast
12:55 AM 34.9 °F - 32.0 °F 89% 30.23 in 10.0 mi Calm Calm - N/A   Overcast
1:15 AM 34.9 °F - 32.0 °F 89% 30.22 in 10.0 mi Calm Calm - N/A   Overcast
1:35 AM 34.7 °F - 32.0 °F 90% 30.22 in 10.0 mi Calm Calm - N/A   Overcast
1:55 AM 34.7 °F - 32.0 °F 90% 30.22 in 10.0 mi Calm Calm - N/A   Overcast
2:15 AM 34.7 °F - 32.0 °F 90% 30.22 in 10.0 mi Calm Calm - N/A   Overcast
2:35 AM 34.7 °F - 32.0 °F 90% 30.22 in 10.0 mi Calm Calm - N/A   Overcast
2:55 AM 34.7 °F - 32.0 °F 90% 30.22 in 10.0 mi Calm Calm - N/A   Overcast
3:15 AM 34.7 °F - 32.0 °F 90% 30.21 in 10.0 mi Calm Calm - N/A   Overcast
3:35 AM 34.7 °F - 31.8 °F 89% 30.22 in 10.0 mi Calm Calm - N/A   Overcast
3:55 AM 34.7 °F - 32.0 °F 90% 30.22 in 10.0 mi Calm Calm - N/A   Overcast
4:15 AM 34.5 °F - 32.0 °F 90% 30.22 in 10.0 mi Calm Calm - N/A   Overcast
4:35 AM 34.3 °F - 32.0 °F 91% 30.23 in 10.0 mi Calm Calm - N/A   Overcast
4:55 AM 34.2 °F - 32.0 °F 92% 30.23 in 10.0 mi Calm Calm - N/A   Overcast
5:15 AM 34.2 °F - 32.0 °F 92% 30.23 in 10.0 mi Calm Calm - N/A   Overcast
5:35 AM 34.2 °F - 32.0 °F 92% 30.23 in 10.0 mi Calm Calm - N/A   Overcast
5:55 AM 34.2 °F - 32.0 °F 92% 30.23 in 10.0 mi Calm Calm - N/A   Overcast
6:15 AM 34.0 °F - 32.0 °F 92% 30.23 in 10.0 mi Calm Calm - N/A   Overcast
6:35 AM 34.2 °F - 32.0 °F 92% 30.23 in 7.0 mi Calm Calm - N/A   Overcast
6:55 AM 33.8 °F - 32.0 °F 93% 30.24 in 7.0 mi Calm Calm - N/A   Overcast
7:15 AM 33.3 °F - 32.0 °F 95% 30.25 in 7.0 mi Calm Calm - N/A   Overcast
7:35 AM 33.4 °F - 32.0 °F 94% 30.25 in 5.0 mi Calm Calm - N/A   Scattered Clouds
7:55 AM 33.3 °F - 32.0 °F 95% 30.25 in 5.0 mi Calm Calm - N/A   Clear
8:15 AM 33.8 °F - 32.0 °F 93% 30.26 in 7.0 mi Calm Calm - N/A   Clear
8:35 AM 34.5 °F - 32.2 °F 91% 30.26 in 7.0 mi Calm Calm - N/A   Clear
8:55 AM 35.2 °F - 32.2 °F 89% 30.26 in 7.0 mi Calm Calm - N/A   Mostly Cloudy
9:15 AM 36.0 °F - 32.2 °F 86% 30.25 in 10.0 mi Calm Calm - N/A   Overcast
9:35 AM 37.4 °F - 33.3 °F 85% 30.24 in 10.0 mi Calm Calm - N/A   Overcast
9:55 AM 38.7 °F - 34.2 °F 84% 30.22 in 10.0 mi Calm Calm - N/A   Scattered Clouds
10:15 AM 40.5 °F - 34.5 °F 79% 30.20 in 10.0 mi Calm Calm - N/A   Clear
10:35 AM 42.3 °F - 34.7 °F 75% 30.18 in 10.0 mi Calm Calm - N/A   Clear
10:55 AM 44.8 °F - 35.2 °F 69% 30.17 in 10.0 mi Calm Calm - N/A   Clear
11:15 AM 45.7 °F - 36.0 °F 69% 30.14 in 10.0 mi Calm Calm - N/A   Clear
11:35 AM 47.1 °F - 35.8 °F 65% 30.13 in 10.0 mi Calm Calm - N/A   Clear
11:55 AM 48.2 °F - 36.5 °F 64% 30.10 in 10.0 mi SE 3.5 mph - N/A   Clear
12:15 PM 48.4 °F - 36.5 °F 64% 30.09 in 10.0 mi South 4.6 mph - N/A   Mostly Cloudy
12:35 PM 50.7 °F - 37.2 °F 60% 30.07 in 10.0 mi South 5.8 mph - N/A   Mostly Cloudy
12:55 PM 50.0 °F - 37.0 °F 61% 30.07 in 10.0 mi Calm Calm - N/A   Overcast
1:15 PM 50.2 °F - 37.4 °F 62% 30.05 in 10.0 mi Calm Calm - N/A   Overcast
1:35 PM 50.9 °F - 37.9 °F 61% 30.03 in 10.0 mi NE 3.5 mph - N/A   Overcast
1:55 PM 50.7 °F - 37.6 °F 61% 30.02 in 10.0 mi Calm Calm - N/A   Overcast
2:15 PM 51.4 °F - 38.1 °F 60% 30.02 in 10.0 mi Calm Calm - N/A   Overcast
2:35 PM 51.8 °F - 38.5 °F 60% 30.01 in 10.0 mi Calm Calm - N/A   Overcast
2:55 PM 51.8 °F - 38.7 °F 61% 30.00 in 10.0 mi Calm Calm - N/A   Overcast
3:15 PM 52.2 °F - 38.8 °F 60% 30.00 in 10.0 mi Calm Calm - N/A   Overcast
3:35 PM 52.2 °F - 38.7 °F 60% 29.98 in 10.0 mi Calm Calm - N/A   Overcast
3:55 PM 52.2 °F - 39.6 °F 62% 29.97 in 10.0 mi Calm Calm - N/A   Mostly Cloudy
4:15 PM 51.6 °F - 40.1 °F 65% 29.96 in 10.0 mi WNW 3.5 mph - N/A   Mostly Cloudy
4:35 PM 51.1 °F - 39.7 °F 65% 29.96 in 10.0 mi NW 3.5 mph - N/A   Overcast
4:55 PM 50.0 °F - 42.1 °F 74% 29.96 in 5.0 mi WNW 3.5 mph - 0.01 in Rain Light Rain
5:15 PM 47.8 °F - 45.1 °F 90% 29.94 in 7.0 mi SSE 3.5 mph - 0.01 in Rain Rain
5:35 PM 46.8 °F - 45.9 °F 97% 29.93 in 5.0 mi Calm Calm - 0.03 in Rain Rain
6:15 PM 46.4 °F 45.2 °F 45.7 °F 97% 29.91 in 10.0 mi West 3.5 mph - N/A   Overcast
6:35 PM 47.1 °F - 45.9 °F 95% 29.91 in 10.0 mi WSW 3.5 mph - N/A   Overcast
6:55 PM 47.5 °F - 45.7 °F 93% 29.91 in 10.0 mi WSW 3.5 mph - N/A Rain Light Rain
7:15 PM 47.7 °F - 45.9 °F 93% 29.91 in 10.0 mi Calm Calm - N/A Rain Light Rain
7:35 PM 48.0 °F - 46.0 °F 93% 29.89 in 10.0 mi South 6.9 mph - N/A   Light Drizzle
7:55 PM 49.1 °F - 46.0 °F 89% 29.89 in 10.0 mi Calm Calm - N/A   Overcast
8:15 PM 50.0 °F - 46.0 °F 86% 29.88 in 10.0 mi South 5.8 mph - N/A   Overcast
8:35 PM 49.6 °F - 46.4 °F 89% 29.88 in 10.0 mi South 5.8 mph - N/A   Overcast
8:55 PM 50.0 °F - 46.0 °F 86% 29.88 in 10.0 mi SW 3.5 mph - N/A   Overcast
9:15 PM 50.0 °F - 46.4 °F 87% 29.87 in 10.0 mi Calm Calm - N/A   Overcast
9:35 PM 50.0 °F - 46.4 °F 87% 29.87 in 10.0 mi Calm Calm - N/A   Overcast
9:55 PM 50.2 °F - 46.4 °F 87% 29.87 in 10.0 mi Calm Calm - N/A   Overcast
10:15 PM 50.4 °F - 46.6 °F 87% 29.86 in 10.0 mi South 6.9 mph - N/A   Overcast
10:35 PM 50.4 °F - 46.8 °F 87% 29.87 in 10.0 mi South 6.9 mph - N/A Rain Rain
10:55 PM 49.3 °F - 46.6 °F 90% 29.85 in 7.0 mi South 8.1 mph - 0.01 in Rain Rain
11:15 PM 49.1 °F - 46.4 °F 90% 29.84 in 10.0 mi SSE 4.6 mph - N/A Rain Rain
11:35 PM 49.3 °F - 46.8 °F 91% 29.85 in 7.0 mi SSE 6.9 mph - 0.01 in Rain Rain
11:55 PM 48.6 °F - 47.1 °F 95% 29.83 in 3.0 mi SSE 10.4 mph - 0.10 in Rain Rain